Regional Weather Roundup
Issued by NWS Little Rock, AR

Home | Current Version | Previous Version | Graphics & Text | Print | Product List | Glossary On
Versions: 1 2 3 4 5 6 7 8 9 10 11 12 13 14 15 16 17 18 19 20 21 22 23 24 25 26 27 28 29 30 31 32 33 34 35 36 37 38 39 40 41 42 43 44 45 46 47 48 49 50
000
ASUS44 KLZK 202305
RWRLZK

WEATHER ROUNDUP FOR ARKANSAS
NATIONAL WEATHER SERVICE LITTLE ROCK AR
500 PM CST MON NOV 20 2017

NOTE: "FAIR" INDICATES FEW OR NO CLOUDS BELOW 12,000 FEET WITH NO
SIGNIFICANT WEATHER AND/OR OBSTRUCTIONS TO VISIBILITY.

ARZ001-003-010-029-210000-
NORTHWEST ARKANSAS

CITY           SKY/WX    TMP DP  RH WIND       PRES   REMARKS
FAYETTEVILLE   CLEAR     55  28  35 S9        29.95S
FORT SMITH     CLEAR     59  31  34 S6        29.98S
HARRISON       CLEAR     53  29  39 S10       29.96S
BENTONVILLE    CLEAR     55  28  35 S13       29.95F
ROGERS         CLEAR     56  27  32 S16       29.93F
SILOAM SPGS    CLEAR     55  29  36 S16       29.94F
HIGHFILL       CLEAR     55  29  36 S12       29.94S
$$

ARZ004-005-016-210000-
NORTH CENTRAL ARKANSAS

CITY           SKY/WX    TMP DP  RH WIND       PRES   REMARKS
BATESVILLE     CLEAR     52  27  38 S8        30.04S
FLIPPIN        CLEAR     57  27  31 S7        29.98S
MTN HOME       CLEAR     54  28  36 SW7       29.96S
$$

ARZ040-041-210000-
WEST CENTRAL ARKANSAS

CITY           SKY/WX    TMP DP  RH WIND       PRES   REMARKS
MENA           CLEAR     57  32  38 CALM      30.01S
MOUNT IDA      CLEAR     57  31  37 VRB3      30.01S
$$

ARZ009-017-025-026-028-210000-
NORTHEAST ARKANSAS

CITY           SKY/WX    TMP DP  RH WIND       PRES   REMARKS
CORNING        FAIR      48  32  53 S10G16    30.04
JONESBORO      CLEAR     50  29  44 S7        30.05F
NEWPORT        CLEAR     49  32  52 S10       30.05F
WALNUT RIDGE     N/A     49  30  48 S13       30.04
BLYTHEVILLE    CLEAR     48  33  56 SW7       30.07F
NW BLYTHEVILLE CLEAR     50  28  43 S6        30.07S
$$

ARZ022-023-033-042-044-210000-
CENTRAL ARKANSAS

CITY           SKY/WX    TMP DP  RH WIND       PRES   REMARKS
LITTLE ROCK    PTCLDY    52  28  39 S8        30.06S
N LITTLE ROCK    N/A     55  29  38 S6        30.08S
JACKSONVILLE   CLEAR     55  27  33 S5        30.04F
SEARCY         CLEAR     50  29  44 S7        30.05F
HOT SPRINGS    CLEAR     57  29  34 S6        30.04F
RUSSELLVILLE   CLEAR     55  30  38 SE3       30.00F
CLINTON        FAIR      55  28  35 VRB7      30.02F
$$

ARZ036-210000-
EAST ARKANSAS

CITY           SKY/WX    TMP DP  RH WIND       PRES   REMARKS
WEST MEMPHIS   CLEAR     45  28  51 S7        30.07F
$$

ARZ050-053-066-070-073-210000-
SOUTHWEST ARKANSAS

CITY           SKY/WX    TMP DP  RH WIND       PRES   REMARKS
ARKADELPHIA    FAIR      56  30  37 S6        30.06F
CAMDEN         CLEAR     55  27  33 S5        30.07F
TEXARKANA      CLEAR     56  32  40 S7        30.05F
EL DORADO      CLEAR     54  33  45 SE5       30.09S
DE QUEEN       CLEAR     59  31  34 S7        30.01F
$$

ARZ056-057-069-210000-
SOUTHEAST ARKANSAS

CITY           SKY/WX    TMP DP  RH WIND       PRES   REMARKS
PINE BLUFF     PTCLDY    53  27  36 S10       30.08F
STUTTGART      CLOUDY    51  30  44 SE8       30.08F
MONTICELLO     PTCLDY    53  32  44 CALM      30.10S

$$





USA.gov is the U.S. government's official web portal to all federal, state and local government web resources and services.